Valdosta, GA

10:42 PM EST on December 13, 2017 (GMT -0500)
Moody Air Force Base

Weather History for KVAD - October, 2012

Change the Weather History Date:

Sunday, October 28, 2012

  Actual Average Record
Temperature  
Mean Temperature 60 °F -  
Max Temperature 68 °F 75 °F 87 °F (2002)
Min Temperature 52 °F 55 °F 39 °F (2008)
Degree Days  
Heating Degree Days 5    
Growing Degree Days 10 (Base 50)    
Moisture  
Dew Point 49 °F    
Average Humidity 70    
Maximum Humidity 89    
Minimum Humidity 56    
Precipitation  
Precipitation 0.00 in - - ()
Sea Level Pressure  
Sea Level Pressure 29.76 in    
Wind  
Wind Speed 13 mph (NW)    
Max Wind Speed 23 mph    
Max Gust Speed 29 mph    
Visibility 10 miles    
Events      
Averages and records for this station are not official NWS values.
T = Trace of Precipitation, MM = Missing Value Source: NWS Daily Summary

Daily Weather History Graph

Daily Weather History Graph

Search for Another Location

Airport or City:

Trip Planner

Search our weather history database for the weather conditions in past years. The results will help you decide how hot, cold, wet, or windy it might be!

Date:

Astronomy

Oct. 28, 2012 Rise Set
Actual Time 7:45 AM EDT 6:47 PM EDT
Civil Twilight 7:20 AM EDT 7:12 PM EDT
Nautical Twilight 6:51 AM EDT 7:40 PM EDT
Astronomical Twilight 6:23 AM EDT 8:08 PM EDT
Moon 6:04 PM EDT (10/28) 6:39 AM EDT (10/28)
Length of Visible Light 11h 51m
Length of Day
11h 02m
Waxing Gibbous, 99% of the Moon is Illuminated
Oct 28
Waxing Gibbous
Oct 29
Full
Nov 6
Last Quarter
Nov 13
New
Nov 20
First Quarter

Hourly Weather History & Observations

Time (EDT) Temp. Dew Point Humidity Pressure Visibility Wind Dir Wind Speed Gust Speed Precip Events Conditions
12:55 AM 62.4 °F 55.2 °F 77% 29.75 in 10.0 mi NW 16.1 mph - N/A   Clear
1:55 AM 59.9 °F 53.4 °F 79% 29.74 in 10.0 mi NW 16.1 mph 20.7 mph N/A   Clear
2:55 AM 57.9 °F 52.5 °F 82% 29.75 in 10.0 mi NW 10.4 mph - N/A   Clear
3:55 AM 56.5 °F 50.9 °F 82% 29.74 in 10.0 mi NW 8.1 mph - N/A   Clear
4:55 AM 54.9 °F 49.8 °F 83% 29.73 in 10.0 mi WNW 9.2 mph - N/A   Clear
5:55 AM 53.8 °F 49.5 °F 85% 29.74 in 10.0 mi NW 6.9 mph - N/A   Clear
6:55 AM 52.3 °F 49.3 °F 89% 29.74 in 10.0 mi NW 9.2 mph - N/A   Clear
7:55 AM 52.2 °F 49.1 °F 89% 29.76 in 10.0 mi NW 10.4 mph - N/A   Clear
8:55 AM 54.7 °F 49.5 °F 83% 29.78 in 10.0 mi NW 11.5 mph - N/A   Clear
9:55 AM 57.9 °F 49.5 °F 73% 29.79 in 10.0 mi NW 16.1 mph 23.0 mph N/A   Clear
10:55 AM 61.5 °F 50.2 °F 66% 29.80 in 10.0 mi WNW 11.5 mph - N/A   Clear
11:55 AM 63.5 °F 50.9 °F 63% 29.77 in 10.0 mi NW 11.5 mph - N/A   Clear
12:55 PM 65.7 °F 52.0 °F 61% 29.75 in 10.0 mi West 11.5 mph 17.3 mph N/A   Clear
1:55 PM 66.9 °F 51.8 °F 58% 29.73 in 10.0 mi West 13.8 mph - N/A   Partly Cloudy
2:55 PM 68.2 °F 52.2 °F 56% 29.72 in 10.0 mi WNW 15.0 mph - N/A   Partly Cloudy
3:55 PM 66.2 °F 51.6 °F 59% 29.72 in 10.0 mi West 13.8 mph - N/A   Partly Cloudy
4:55 PM 62.8 °F 50.5 °F 64% 29.73 in 10.0 mi WNW 13.8 mph - N/A   Partly Cloudy
4:59 PM 62.6 °F 50.0 °F 63% 29.73 in 10.0 mi WNW 17.3 mph - N/A   Mostly Cloudy
5:28 PM 60.8 °F 50.0 °F 68% 29.74 in 10.0 mi WNW 13.8 mph 24.2 mph N/A   Mostly Cloudy
5:43 PM 60.8 °F 50.0 °F 68% 29.75 in 10.0 mi WNW 11.5 mph - N/A   Overcast
5:55 PM 60.1 °F 49.3 °F 67% 29.75 in 10.0 mi WNW 16.1 mph 23.0 mph N/A   Overcast
6:55 PM 59.2 °F 48.4 °F 67% 29.76 in 10.0 mi WNW 18.4 mph - N/A   Overcast
7:55 PM 58.5 °F 47.1 °F 66% 29.79 in 10.0 mi WNW 18.4 mph 27.6 mph N/A   Overcast
8:36 PM 57.2 °F 44.6 °F 63% 29.80 in 10.0 mi NW 19.6 mph 28.8 mph N/A   Overcast
8:55 PM 57.7 °F 45.0 °F 62% 29.81 in 10.0 mi NW 11.5 mph - N/A   Overcast
9:55 PM 57.4 °F 44.2 °F 62% 29.82 in 10.0 mi NW 23.0 mph 27.6 mph N/A   Overcast
10:55 PM 55.4 °F 41.9 °F 60% 29.83 in 10.0 mi NW 16.1 mph 26.5 mph N/A   Scattered Clouds
11:55 PM 52.5 °F 41.9 °F 67% 29.83 in 10.0 mi NW 8.1 mph - N/A   Clear